Regional Weather Roundup
Issued by NWS

Home | Current Version | Previous Version | Text Only | Print | Product List | Glossary On
Versions: 1 2 3 4 5 6 7 8 9 10 11 12 13 14 15 16 17 18 19 20 21 22 23 24 25 26 27 28 29 30 31 32 33 34 35 36 37 38 39 40 41 42 43 44 45 46 47 48 49 50
000
ASUS43 KDMX 020807
RWRIA

WEATHER ROUNDUP FOR IOWA
NATIONAL WEATHER SERVICE DES MOINES IA
200 AM CST MON MAR 02 2015

NOTE: "FAIR" INDICATES FEW OR NO CLOUDS BELOW 12,000 FEET WITH NO
SIGNIFICANT WEATHER AND/OR OBSTRUCTIONS TO VISIBILITY.

* - THESE STATIONS ARE NOT NWS STATIONS...THUS NOT UNDER NWS
QUALITY CONTROL.  THEY ALSO DO NOT REPORT WEATHER SUCH
AS PRECIPITATION OR FOG.

IAZ001>003-012>014-020>022-031>034-043>046-020900-
   NORTHWEST IOWA

CITY           SKY/WX    TMP DP  RH WIND       PRES   REMARKS
CARROLL *      PTCLDY    16  10  79 NW5       30.47S WCI   9
CHEROKEE *     PTCLDY    10   9  92 CALM      30.47S
DENISON *      CLEAR      9   7  92 CALM      30.46F
LE MARS *      CLEAR     10   9  92 CALM      30.48S
ORANGE CITY *  CLEAR     16  10  79 CALM      30.46R
SHELDON *        N/A      7   5  92 NE5       30.45R WCI  -2
SIOUX CITY     CLEAR     13   9  84 CALM      30.49S
SPENCER        CLEAR      6   3  87 W6        30.46R WCI  -4
STORM LAKE *   CLEAR     18  14  86 N5        30.45F WCI  11
$$

IAZ055>058-069>071-079>083-090>094-020900-
   SOUTHWEST IOWA

CITY           SKY/WX    TMP DP  RH WIND       PRES   REMARKS
ATLANTIC *     PTCLDY    16  14  93 CALM      30.50R
AUDUBON *      CLEAR      9   5  85 CALM      30.48S
CLARINDA *       N/A     23  19  86 NE5       30.52S WCI  17
COUNCIL BLFS * CLEAR     25  16  68 E7        30.48S WCI  17
CRESTON *      CLEAR     23  16  74 N6        30.49S WCI  16
HARLAN  *      CLEAR     14  14 100 S5        30.52S WCI   6
LAMONI         PTCLDY    24  18  77 W5        30.48R WCI  18
RED OAK *      CLOUDY    23  19  86 N3        30.51R
SHENANDOAH *   CLEAR     23  19  86 NE5       30.52R WCI  17
$$

IAZ047>049-059>061-072>074-084-020900-
   CENTRAL IOWA

CITY           SKY/WX    TMP DP  RH WIND       PRES   REMARKS
AMES           CLEAR     18  11  74 NW6       30.49R WCI  10
ANKENY *       CLEAR     16  12  86 W5        30.51R WCI   9
CHARITON *     CLOUDY    23  18  80 W6        30.49S WCI  16
DES MOINES     MOCLDY    20  13  74 W3        30.51R
GRINNELL*      PTCLDY    16  12  86 W7        30.48R WCI   6
KNOXVILLE *    CLOUDY    19  14  79 NW7       30.48S WCI  10
MARSHALLTOWN   PTCLDY    10   6  84 NW10      30.47R WCI  -4
PELLA *        PTCLDY    19  16  86 W3        30.51R
PERRY *          N/A     14  10  85 W5        30.49R WCI   6
$$

IAZ004>006-015-016-023>025-035-036-020900-
   NORTH CENTRAL IOWA

CITY           SKY/WX    TMP DP  RH WIND       PRES   REMARKS
ALGONA *       CLEAR      9 N/A N/A W7        30.47R WCI  -3
CLARION *      CLEAR      9   7  92 N6        30.46S WCI  -1
ESTHERVILLE      N/A      8   5  87 NW8       30.44S WCI  -4
FORT DODGE *   PTCLDY    12   7  79 NW3       30.48R
MASON CITY     CLEAR     12   7  80 NW9       30.45S WCI   0
FOREST CITY *  CLEAR     14   9  79 NW6       30.44R WCI   5
IOWA FALLS *     N/A      5   3  92 W9        30.48R WCI  -9
$$

IAZ007>011-017>019-026>030-037>042-050>054-066-020900-
   NORTHEAST IOWA

CITY           SKY/WX    TMP DP  RH WIND       PRES   REMARKS
CEDAR RAPIDS   PTCLDY    13   9  84 W8        30.45S WCI   2
CHARLES CITY * CLEAR     12   9  85 NW9       30.44R WCI   0
CLINTON *      CLEAR      7   3  85 W10       30.47S WCI  -8
DECORAH *      CLEAR     14   9  79 NW5       30.40R WCI   6
DUBUQUE        CLEAR     11   7  84 W6        30.42R WCI   1
MONTICELLO *   CLEAR     16  10  79 W8        30.45R WCI   5
OELWEIN *      CLEAR      7   3  85 W8        30.44R WCI  -6
WATERLOO       PTCLDY    14  10  84 W8        30.46R WCI   3
$$

IAZ064-065-067-068-078-020900-
   EAST CENTRAL IOWA

CITY           SKY/WX    TMP DP  RH WIND       PRES   REMARKS
DAVENPORT      PTCLDY     6   1  80 W9        30.47R WCI  -8
IOWA CITY      PTCLDY    15  10  80 W9        30.50R WCI   3
MT. PLEASANT * MOCLDY    14  12  92 SW5       30.50R WCI   6
MUSCATINE *    CLEAR     18  12  79 CALM      30.50R
QUAD CITIES    PTCLDY     7   2  80 W3        30.47R
$$

IAZ062-063-075>077-085>089-095>099-020900-
   SOUTHEAST IOWA

CITY           SKY/WX    TMP DP  RH WIND       PRES   REMARKS
BURLINGTON     CLOUDY    20  15  81 W6        30.49R WCI  12
FAIRFIELD *    MOCLDY    19  14  79 SW8       30.50R WCI   9
FORT MADISON * CLEAR     21  16  79 W5        30.50R WCI  15
KEOKUK *       CLEAR     19  18  93 SW3       30.50R
OSKALOOSA *      N/A     16  12  86 W7        30.50R WCI   6
CENTERVILLE *  CLEAR     21  18  86 CALM      30.50R
OTTUMWA        PTCLDY    19  14  81 W8        30.50R WCI   9
WASHINGTON *   CLEAR     14  14 100 W6        30.49R WCI   5
$$

ABBREVIATIONS USED IN REMARKS
   TC - TEMPERATURES IN CELSIUS
  WCI - WIND CHILL INDEX
   HX - HEAT INDEX
  VSB - VISIBILITY
$$




USA.gov is the U.S. government's official web portal to all federal, state and local government web resources and services.